Weather History for KFXY - September, 2013

Change the Weather History Date:

Monday, September 16, 2013

  Actual Average Record
Temperature  
Mean Temperature 54 °F -  
Max Temperature 64 °F 70 °F 78 °F (2012)
Min Temperature 44 °F 48 °F 33 °F (2014)
Degree Days  
Heating Degree Days 11    
Growing Degree Days 4 (Base 50)    
Moisture  
Dew Point 47 °F    
Average Humidity 80    
Maximum Humidity 100    
Minimum Humidity 49    
Precipitation  
Precipitation 0.00 in - - ()
Sea Level Pressure  
Sea Level Pressure 30.32 in    
Wind  
Wind Speed 4 mph (East)    
Max Wind Speed 9 mph    
Max Gust Speed -    
Visibility 10 miles    
Events      
Averages and records for this station are not official NWS values.
T = Trace of Precipitation, MM = Missing Value Source: NWS Daily Summary

Daily Weather History Graph

Daily Weather History Graph

Search for Another Location

Airport or City:

Trip Planner

Search our weather history database for the weather conditions in past years. The results will help you decide how hot, cold, wet, or windy it might be!

Date:

Astronomy

Sep. 16, 2013 Rise Set
Actual Time 6:55 AM CDT 7:22 PM CDT
Civil Twilight 6:26 AM CDT 7:50 PM CDT
Nautical Twilight 5:53 AM CDT 8:24 PM CDT
Astronomical Twilight 5:18 AM CDT 8:58 PM CDT
Moon 5:34 PM CDT (9/16) 3:38 AM CDT (9/16)
Length of Visible Light 13h 23m
Length of Day
12h 26m
Waxing Gibbous, 90% of the Moon is Illuminated
Sep 16
Waxing Gibbous
Sep 19
Full
Sep 26
Last Quarter
Oct 4
New
Oct 11
First Quarter

Hourly Weather History & Observations

Time (CDT) Temp. Windchill Dew Point Humidity Pressure Visibility Wind Dir Wind Speed Gust Speed Precip Events Conditions
12:15 AM 53.6 °F - 50.0 °F 88% 30.28 in 10.0 mi NE 4.6 mph - N/A   Clear
12:35 AM 51.8 °F - 50.0 °F 94% 30.29 in 10.0 mi NNE 6.9 mph - N/A   Clear
12:55 AM 51.8 °F - 50.0 °F 94% 30.29 in 10.0 mi NNE 8.1 mph - N/A   Clear
1:15 AM 51.8 °F - 50.0 °F 94% 30.30 in 10.0 mi NE 9.2 mph - N/A   Clear
1:35 AM 51.8 °F - 48.2 °F 88% 30.30 in 10.0 mi NE 6.9 mph - N/A   Clear
1:55 AM 50.0 °F - 48.2 °F 94% 30.30 in 10.0 mi NE 4.6 mph - N/A   Clear
2:15 AM 50.0 °F - 46.4 °F 87% 30.30 in 10.0 mi NE 4.6 mph - N/A   Clear
2:35 AM 50.0 °F - 46.4 °F 87% 30.31 in 10.0 mi NE 3.5 mph - N/A   Clear
2:55 AM 50.0 °F - 46.4 °F 87% 30.31 in 10.0 mi NE 4.6 mph - N/A   Clear
3:15 AM 48.2 °F - 46.4 °F 93% 30.31 in 10.0 mi NE 3.5 mph - N/A   Clear
3:35 AM 48.2 °F - 46.4 °F 93% 30.31 in 10.0 mi NE 3.5 mph - N/A   Clear
3:55 AM 48.2 °F - 46.4 °F 93% 30.31 in 10.0 mi NE 3.5 mph - N/A   Clear
4:15 AM 46.4 °F 45.2 °F 44.6 °F 93% 30.32 in 10.0 mi NNE 3.5 mph - N/A   Clear
4:35 AM 46.4 °F - 44.6 °F 93% 30.32 in 10.0 mi Calm Calm - N/A   Clear
4:55 AM 46.4 °F - 44.6 °F 93% 30.32 in 10.0 mi Calm Calm - N/A   Clear
5:15 AM 46.4 °F 45.2 °F 44.6 °F 93% 30.32 in 10.0 mi NNE 3.5 mph - N/A   Clear
5:35 AM 46.4 °F 45.2 °F 44.6 °F 93% 30.33 in 10.0 mi NNE 3.5 mph - N/A   Clear
5:55 AM 46.4 °F 45.2 °F 44.6 °F 93% 30.33 in 10.0 mi NE 3.5 mph - N/A   Clear
6:15 AM 44.6 °F - 44.6 °F 100% 30.33 in 10.0 mi Calm Calm - N/A   Clear
6:35 AM 44.6 °F - 42.8 °F 93% 30.34 in 10.0 mi Calm Calm - N/A   Clear
6:55 AM 44.6 °F - 42.8 °F 93% 30.35 in 10.0 mi Calm Calm - N/A   Clear
7:15 AM 44.6 °F - 42.8 °F 93% 30.35 in 10.0 mi Calm Calm - N/A   Clear
7:35 AM 44.6 °F - 44.6 °F 100% 30.35 in 10.0 mi Calm Calm - N/A   Clear
7:55 AM 46.4 °F - 44.6 °F 93% 30.36 in 10.0 mi Calm Calm - N/A   Clear
8:15 AM 50.0 °F - 46.4 °F 87% 30.36 in 10.0 mi ENE 3.5 mph - N/A   Clear
8:35 AM 50.0 °F - 46.4 °F 87% 30.36 in 10.0 mi ENE 5.8 mph - N/A   Clear
8:55 AM 51.8 °F - 46.4 °F 82% 30.36 in 10.0 mi East 5.8 mph - N/A   Clear
9:15 AM 53.6 °F - 50.0 °F 88% 30.37 in 10.0 mi East 6.9 mph - N/A   Clear
9:35 AM 53.6 °F - 50.0 °F 88% 30.38 in 10.0 mi ESE 8.1 mph - N/A   Scattered Clouds
9:55 AM 53.6 °F - 50.0 °F 88% 30.38 in 10.0 mi East 8.1 mph - N/A   Overcast
10:15 AM 55.4 °F - 50.0 °F 82% 30.38 in 10.0 mi East 6.9 mph - N/A   Overcast
10:35 AM 55.4 °F - 50.0 °F 82% 30.38 in 10.0 mi ESE 6.9 mph - N/A   Overcast
10:55 AM 55.4 °F - 50.0 °F 82% 30.38 in 10.0 mi SE 6.9 mph - N/A   Overcast
11:15 AM 59.0 °F - 51.8 °F 77% 30.38 in 10.0 mi SE 6.9 mph - N/A   Overcast
11:35 AM 59.0 °F - 50.0 °F 72% 30.38 in 10.0 mi ESE 3.5 mph - N/A   Overcast
11:55 AM 59.0 °F - 50.0 °F 72% 30.38 in 10.0 mi ESE 3.5 mph - N/A   Overcast
12:15 PM 59.0 °F - 50.0 °F 72% 30.38 in 10.0 mi Calm Calm - N/A   Mostly Cloudy
12:35 PM 60.8 °F - 51.8 °F 72% 30.38 in 10.0 mi SSE 5.8 mph - N/A   Mostly Cloudy
12:55 PM 60.8 °F - 50.0 °F 68% 30.37 in 10.0 mi East 4.6 mph - N/A   Overcast
1:15 PM 62.6 °F - 50.0 °F 63% 30.36 in 10.0 mi East 4.6 mph - N/A   Overcast
1:35 PM 62.6 °F - 50.0 °F 63% 30.36 in 10.0 mi Calm Calm - N/A   Overcast
1:55 PM 62.6 °F - 48.2 °F 59% 30.35 in 10.0 mi SE 4.6 mph - N/A   Mostly Cloudy
2:15 PM 64.4 °F - 50.0 °F 59% 30.35 in 10.0 mi East 8.1 mph - N/A   Mostly Cloudy
2:35 PM 64.4 °F - 48.2 °F 56% 30.33 in 10.0 mi East 8.1 mph - N/A   Scattered Clouds
2:55 PM 64.4 °F - 46.4 °F 52% 30.32 in 10.0 mi East 6.9 mph - N/A   Scattered Clouds
3:15 PM 64.4 °F - 44.6 °F 49% 30.31 in 10.0 mi ESE 4.6 mph - N/A   Scattered Clouds
3:35 PM 64.4 °F - 46.4 °F 52% 30.32 in 10.0 mi East 6.9 mph - N/A   Clear
3:55 PM 64.4 °F - 46.4 °F 52% 30.31 in 10.0 mi SSE 9.2 mph - N/A   Mostly Cloudy
4:15 PM 64.4 °F - 46.4 °F 52% 30.30 in 10.0 mi SE 9.2 mph - N/A   Mostly Cloudy
4:35 PM 64.4 °F - 44.6 °F 49% 30.29 in 10.0 mi SE 6.9 mph - N/A   Scattered Clouds
4:55 PM 64.4 °F - 44.6 °F 49% 30.28 in 10.0 mi SSE 6.9 mph - N/A   Clear
5:15 PM 64.4 °F - 46.4 °F 52% 30.28 in 10.0 mi SE 4.6 mph - N/A   Scattered Clouds
5:35 PM 64.4 °F - 46.4 °F 52% 30.28 in 10.0 mi SSE 6.9 mph - N/A   Scattered Clouds
5:55 PM 62.6 °F - 46.4 °F 55% 30.28 in 10.0 mi SSE 6.9 mph - N/A   Clear
6:15 PM 62.6 °F - 46.4 °F 55% 30.27 in 10.0 mi SSE 6.9 mph - N/A   Clear
6:35 PM 62.6 °F - 48.2 °F 59% 30.27 in 10.0 mi South 5.8 mph - N/A   Clear
6:55 PM 60.8 °F - 48.2 °F 63% 30.27 in 10.0 mi South 4.6 mph - N/A   Clear
7:15 PM 57.2 °F - 48.2 °F 72% 30.27 in 10.0 mi South 3.5 mph - N/A   Clear
7:35 PM 55.4 °F - 48.2 °F 77% 30.26 in 10.0 mi Calm Calm - N/A   Clear
7:55 PM 53.6 °F - 48.2 °F 82% 30.26 in 10.0 mi Calm Calm - N/A   Clear
8:15 PM 51.8 °F - 50.0 °F 94% 30.26 in 10.0 mi Calm Calm - N/A   Clear
8:35 PM 51.8 °F - 50.0 °F 94% 30.26 in 10.0 mi Calm Calm - N/A   Clear
8:55 PM 50.0 °F - 48.2 °F 94% 30.26 in 10.0 mi Calm Calm - N/A   Clear
9:15 PM 50.0 °F - 46.4 °F 87% 30.26 in 10.0 mi Calm Calm - N/A   Clear
9:35 PM 46.4 °F - 44.6 °F 93% 30.26 in 7.0 mi Calm Calm - N/A   Clear
9:55 PM 48.2 °F - 46.4 °F 93% 30.26 in 10.0 mi Calm Calm - N/A   Clear
10:15 PM 48.2 °F - 46.4 °F 93% 30.27 in 10.0 mi Calm Calm - N/A   Clear
10:35 PM 46.4 °F - 46.4 °F 100% 30.27 in 10.0 mi Calm Calm - N/A   Clear
10:55 PM 48.2 °F - 46.4 °F 93% 30.26 in 10.0 mi East 3.5 mph - N/A   Clear
11:15 PM 46.4 °F 45.2 °F 44.6 °F 93% 30.27 in 10.0 mi SE 3.5 mph - N/A   Clear
11:35 PM 46.4 °F 44.3 °F 46.4 °F 100% 30.27 in 10.0 mi SE 4.6 mph - N/A   Clear
11:55 PM 50.0 °F - 46.4 °F 87% 30.27 in 10.0 mi SE 5.8 mph - N/A   Clear